{"data":{"norad_id":58626,"intl_designator":"2023-203J","name":"STARLINK-31086","alt_names":[],"object_type":"PAYLOAD","status":"ACTIVE","operator":null,"country":"US","launch_date":"2023-12-23","launch_site_code":"AFETR","launch_vehicle":null,"mission":null,"orbit_class":"UNKNOWN","rcs_meters":null,"size_class":null,"mass_kg":null,"dimensions":null,"purposes":["comms"],"wikipedia_slug":null,"has_3d_model":false,"image_url":null,"decayed_at":null,"tle_current":{"epoch":"2026-09-20T09:30:44.952768Z","epoch_age_seconds":158778,"freshness":"FRESH","line1":"1 58626U 23203J   26263.39635362  .00000134  00000+0  14417-4 0  9991","line2":"2 58626  43.0057  47.1150 0001536 274.3202  85.7474 15.27577408153348","mean_motion":15.27577408,"eccentricity":0.0001536,"inclination_deg":43.0057,"raan_deg":47.115,"arg_perigee_deg":274.3202,"mean_anomaly_deg":85.7474,"bstar":1.4417e-5,"rev_number":15334,"period_min":94.266908665882,"perigee_km":482.00297805459,"apogee_km":484.1107368076,"semimajor_km":6861.1938574311,"source":"CELESTRAK","updated_at":"2026-09-21T09:00:33.923144Z"}}}